| time (UTC) | temp C | wind direction | speed KPH | gust KPH | rain 1hr cm | rain 24hr cm | rain mn cm | humidity % | barometer mb |
| 20260504192102 | 17 | 280 | 8.0 | 16.1 | 0.10 | 0.10 | 0.10 | 98 | 1007.5 |
| 20260504191801 | 17 | 270 | 11.3 | 16.1 | 0.10 | 0.10 | 0.10 | 98 | 1007.5 |
| 20260504191502 | 17 | 247 | 8.0 | 9.7 | 0.00 | 0.00 | 0.00 | 98 | 1007.5 |
| 20260504191201 | 17 | 243 | 4.8 | 9.7 | 0.00 | 0.00 | 0.00 | 98 | 1007.5 |
| 20260504190901 | 17 | 243 | 8.0 | 9.7 | 0.00 | 0.00 | 0.00 | 98 | 1007.5 |
| 20260504190602 | 17 | 248 | 9.7 | 9.7 | 0.00 | 0.00 | 0.00 | 98 | 1007.5 |
| 20260504190302 | 17 | 247 | 3.2 | 8.0 | 0.00 | 0.00 | 0.00 | 98 | 1007.5 |
| 20260504185701 | 17 | 253 | 8.0 | 8.0 | 0.00 | 0.00 | 0.00 | 98 | 1007.5 |
| 20260504185402 | 17 | 254 | 4.8 | 9.7 | 0.00 | 0.00 | 0.00 | 98 | 1007.5 |
| 20260504185101 | 17 | 259 | 0.0 | 9.7 | 0.00 | 0.00 | 0.00 | 98 | 1007.5 |
| 20260504184802 | 17 | 262 | 3.2 | 9.7 | 0.00 | 0.00 | 0.00 | 98 | 1007.5 |
| 20260504184502 | 17 | 256 | 8.0 | 9.7 | 0.00 | 0.00 | 0.00 | 98 | 1007.5 |
| 20260504184202 | 17 | 255 | 1.6 | 6.4 | 0.00 | 0.00 | 0.00 | 98 | 1007.5 |
| 20260504183901 | 17 | 247 | 1.6 | 8.0 | 0.00 | 0.00 | 0.00 | 98 | 1007.5 |
| 20260504183602 | 17 | 238 | 3.2 | 8.0 | 0.00 | 0.00 | 0.00 | 98 | 1007.5 |
| 20260504183301 | 17 | 230 | 1.6 | 8.0 | 0.00 | 0.00 | 0.00 | 98 | 1007.5 |
| 20260504183001 | 17 | 232 | 6.4 | 6.4 | 0.00 | 0.00 | 0.00 | 98 | 1007.5 |
| 20260504182702 | 17 | 228 | 4.8 | 6.4 | 0.00 | 0.00 | 0.00 | 98 | 1007.5 |
| 20260504182401 | 17 | 234 | 3.2 | 6.4 | 0.00 | 0.00 | 0.00 | 98 | 1007.5 |
| 20260504182102 | 17 | 231 | 4.8 | 6.4 | 0.00 | 0.00 | 0.00 | 98 | 1007.5 |
| 20260504181801 | 17 | 216 | 4.8 | 6.4 | 0.00 | 0.00 | 0.00 | 98 | 1007.5 |
| 20260504181502 | 17 | 203 | 4.8 | 4.8 | 0.00 | 0.00 | 0.00 | 98 | 1006.5 |
| 20260504181202 | 17 | 193 | 1.6 | 4.8 | 0.00 | 0.00 | 0.00 | 98 | 1006.5 |
| 20260504180901 | 17 | 182 | 4.8 | 4.8 | 0.00 | 0.00 | 0.00 | 98 | 1006.5 |
| 20260504180602 | 17 | 177 | 3.2 | 6.4 | 0.00 | 0.00 | 0.00 | 98 | 1006.5 |
| 20260504180302 | 18 | 192 | 0.0 | 6.4 | 0.00 | 0.00 | 0.00 | 98 | 1006.5 |
| 20260504180002 | 18 | 196 | 3.2 | 6.4 | 0.00 | 0.00 | 0.00 | 98 | 1006.5 |
| 20260504175102 | 18 | 183 | 1.6 | 4.8 | 0.00 | 0.00 | 0.00 | 98 | 1006.5 |
| 20260504174802 | 18 | 172 | 4.8 | 4.8 | 0.00 | 0.00 | 0.00 | 98 | 1006.5 |
| 20260504174502 | 19 | 175 | 1.6 | 3.2 | 0.00 | 0.00 | 0.00 | 97 | 1006.5 |
| 20260504174202 | 19 | 187 | 0.0 | 3.2 | 0.00 | 0.00 | 0.00 | 97 | 1006.5 |
| 20260504173601 | 19 | 170 | 1.6 | 6.4 | 0.00 | 0.00 | 0.00 | 97 | 1006.5 |
| 20260504173302 | 19 | 163 | 3.2 | 6.4 | 0.00 | 0.00 | 0.00 | 97 | 1006.5 |
| 20260504173001 | 19 | 150 | 1.6 | 6.4 | 0.00 | 0.00 | 0.00 | 97 | 1006.5 |
| 20260504172702 | 20 | 181 | 3.2 | 4.8 | 0.00 | 0.00 | 0.00 | 97 | 1006.5 |
| 20260504172402 | 20 | 182 | 3.2 | 4.8 | 0.00 | 0.00 | 0.00 | 97 | 1006.5 |
| 20260504172101 | 19 | 189 | 1.6 | 6.4 | 0.00 | 0.00 | 0.00 | 97 | 1006.5 |
| 20260504171802 | 19 | 204 | 0.0 | 6.4 | 0.00 | 0.00 | 0.00 | 97 | 1006.5 |
| 20260504171502 | 19 | 198 | 3.2 | 6.4 | 0.00 | 0.00 | 0.00 | 97 | 1006.5 |
| 20260504171201 | 18 | 200 | 6.4 | 6.4 | 0.00 | 0.00 | 0.00 | 97 | 1006.5 |
| 20260504170902 | 18 | 178 | 4.8 | 6.4 | 0.00 | 0.00 | 0.00 | 97 | 1006.5 |
| 20260504170602 | 18 | 174 | 1.6 | 6.4 | 0.00 | 0.00 | 0.00 | 97 | 1006.5 |
| 20260504170301 | 18 | 156 | 3.2 | 6.4 | 0.00 | 0.00 | 0.00 | 96 | 1006.5 |
| 20260504160301 | 21 | 147 | 0.0 | 11.3 | 0.00 | 0.00 | 0.00 | 90 | 1006.5 |
| 20260504150901 | 20 | 145 | 1.6 | 4.8 | 0.00 | 0.00 | 0.00 | 96 | 1007.5 |
| 20260504150601 | 19 | 160 | 0.0 | 4.8 | 0.00 | 0.00 | 0.00 | 96 | 1007.5 |
| 20260504150302 | 19 | 172 | 3.2 | 4.8 | 0.00 | 0.00 | 0.00 | 95 | 1007.5 |
| 20260504141201 | 18 | 178 | 3.2 | 6.4 | 0.00 | 0.00 | 0.00 | 93 | 1007.5 |
| 20260504140902 | 19 | 183 | 4.8 | 6.4 | 0.00 | 0.00 | 0.00 | 92 | 1007.5 |
| 20260504140601 | 19 | 184 | 1.6 | 6.4 | 0.00 | 0.00 | 0.00 | 91 | 1007.5 |
| 20260504140302 | 19 | 193 | 3.2 | 6.4 | 0.00 | 0.00 | 0.00 | 90 | 1007.5 |
| 20260504130301 | 20 | 234 | 9.7 | 16.1 | 0.00 | 0.00 | 0.00 | 89 | 1008.5 |
| 20260504120301 | 19 | 198 | 1.6 | 9.7 | 0.00 | 0.00 | 0.00 | 98 | 1008.5 |
| 20260504110601 | 19 | 152 | 9.7 | 9.7 | 0.00 | 0.00 | 0.00 | 98 | 1008.5 |
| 20260504110302 | 19 | 143 | 4.8 | 9.7 | 0.00 | 0.00 | 0.00 | 98 | 1008.5 |
| 20260504100301 | 20 | 155 | 9.7 | 19.3 | 0.00 | 0.00 | 0.00 | 97 | 1008.5 |
| 20260504081802 | 19 | 141 | 3.2 | 6.4 | 0.00 | 0.00 | 0.00 | 97 | 1008.5 |
| 20260504081501 | 19 | 141 | 3.2 | 6.4 | 0.00 | 0.00 | 0.00 | 96 | 1008.5 |
| 20260504081201 | 19 | 138 | 4.8 | 4.8 | 0.00 | 0.00 | 0.00 | 96 | 1008.5 |
| 20260504080901 | 20 | 137 | 3.2 | 4.8 | 0.00 | 0.00 | 0.00 | 96 | 1008.5 |
| 20260504080602 | 20 | 147 | 3.2 | 4.8 | 0.00 | 0.00 | 0.00 | 95 | 1008.5 |
| 20260504070301 | 20 | 57 | 0.0 | 6.4 | 0.00 | 0.00 | 0.00 | 98 | 1008.5 |
| 20260504050602 | 15 | 345 | 3.2 | 3.2 | 0.00 | 0.00 | 0.00 | 98 | 1008.5 |
| 20260504050301 | 15 | 337 | 0.0 | 3.2 | 0.00 | 0.00 | 0.00 | 98 | 1008.5 |
| 20260504050002 | 15 | 341 | 1.6 | 3.2 | 0.00 | 0.00 | 0.00 | 98 | 1008.5 |
| 20260504045701 | 15 | 347 | 1.6 | 3.2 | 0.00 | 0.00 | 0.00 | 98 | 1008.5 |
| 20260504045401 | 15 | 345 | 1.6 | 4.8 | 0.00 | 0.00 | 0.00 | 98 | 1008.5 |
| 20260504045102 | 15 | 349 | 1.6 | 4.8 | 0.00 | 0.00 | 0.00 | 98 | 1008.5 |
| 20260504044201 | 15 | 1 | 0.0 | 3.2 | 0.00 | 0.00 | 0.00 | 98 | 1008.5 |
| 20260504043901 | 15 | 1 | 0.0 | 3.2 | 0.00 | 0.00 | 0.00 | 98 | 1008.5 |
| 20260504043602 | 15 | 2 | 0.0 | 3.2 | 0.00 | 0.00 | 0.00 | 98 | 1008.5 |
| 20260504043301 | 15 | 3 | 3.2 | 3.2 | 0.00 | 0.00 | 0.00 | 98 | 1008.5 |
| 20260504043002 | 15 | 4 | 3.2 | 3.2 | 0.00 | 0.00 | 0.00 | 98 | 1009.5 |
| 20260504042701 | 15 | 23 | 1.6 | 1.6 | 0.00 | 0.00 | 0.00 | 98 | 1009.5 |
| 20260504042401 | 15 | 314 | 0.0 | 1.6 | 0.00 | 0.00 | 0.00 | 98 | 1009.5 |
| 20260504041801 | 15 | 314 | 0.0 | 3.2 | 0.00 | 0.00 | 0.00 | 98 | 1009.5 |
| 20260504041202 | 15 | 314 | 0.0 | 1.6 | 0.00 | 0.00 | 0.00 | 98 | 1009.5 |
| 20260504040601 | 15 | 325 | 1.6 | 3.2 | 0.00 | 0.00 | 0.00 | 98 | 1009.5 |
| 20260504040002 | 15 | 343 | 3.2 | 3.2 | 0.00 | 0.00 | 0.00 | 98 | 1009.5 |
| 20260504035702 | 15 | 348 | 1.6 | 3.2 | 0.00 | 0.00 | 0.00 | 98 | 1009.5 |
| 20260504035401 | 15 | 356 | 3.2 | 3.2 | 0.00 | 0.00 | 0.00 | 98 | 1009.5 |
| 20260504034800 | 15 | 357 | 1.6 | 3.2 | 0.00 | 0.00 | 0.00 | 98 | 1009.5 |
| 20260504034501 | 15 | 355 | 1.6 | 3.2 | 0.00 | 0.00 | 0.00 | 98 | 1009.5 |
| 20260504034201 | 15 | 353 | 3.2 | 3.2 | 0.00 | 0.00 | 0.00 | 98 | 1009.5 |
| 20260504033901 | 15 | 1 | 3.2 | 3.2 | 0.00 | 0.00 | 0.00 | 98 | 1009.5 |
| 20260504033602 | 15 | 46 | 0.0 | 1.6 | 0.00 | 0.00 | 0.00 | 98 | 1009.5 |
| 20260504033302 | 15 | 46 | 0.0 | 1.6 | 0.00 | 0.00 | 0.00 | 98 | 1009.5 |
| 20260504033002 | 15 | 70 | 0.0 | 3.2 | 0.00 | 0.00 | 0.00 | 98 | 1009.5 |
| 20260504032701 | 15 | 39 | 1.6 | 3.2 | 0.00 | 0.00 | 0.00 | 98 | 1009.5 |
| 20260504032401 | 15 | 16 | 0.0 | 3.2 | 0.00 | 0.00 | 0.00 | 98 | 1009.5 |
| 20260504032101 | 15 | 9 | 0.0 | 3.2 | 0.00 | 0.00 | 0.00 | 98 | 1009.5 |
| 20260504031501 | 15 | 13 | 1.6 | 3.2 | 0.00 | 0.00 | 0.00 | 98 | 1009.5 |
| 20260504031200 | 15 | 24 | 0.0 | 3.2 | 0.00 | 0.00 | 0.00 | 98 | 1009.5 |
| 20260504030901 | 15 | 32 | 1.6 | 3.2 | 0.00 | 0.00 | 0.00 | 98 | 1009.5 |
| 20260504030600 | 15 | 35 | 3.2 | 3.2 | 0.00 | 0.00 | 0.00 | 98 | 1009.5 |
| 20260504030301 | 15 | 40 | 3.2 | 3.2 | 0.00 | 0.00 | 0.00 | 98 | 1009.5 |
| 20260504030002 | 15 | 33 | 3.2 | 3.2 | 0.00 | 0.00 | 0.00 | 98 | 1009.5 |
| 20260504025702 | 15 | 19 | 1.6 | 3.2 | 0.00 | 0.00 | 0.00 | 98 | 1009.5 |
| 20260504025401 | 15 | 20 | 1.6 | 3.2 | 0.00 | 0.00 | 0.00 | 98 | 1009.5 |
| 20260504025101 | 15 | 22 | 1.6 | 3.2 | 0.00 | 0.00 | 0.00 | 98 | 1009.5 |
| 20260504024801 | 15 | 28 | 3.2 | 3.2 | 0.00 | 0.00 | 0.00 | 98 | 1009.5 |
| 20260504024502 | 15 | 39 | 1.6 | 3.2 | 0.00 | 0.00 | 0.00 | 98 | 1009.5 |
| 20260504024202 | 15 | 42 | 3.2 | 3.2 | 0.00 | 0.00 | 0.00 | 98 | 1009.5 |
| 20260504023901 | 15 | 45 | 3.2 | 3.2 | 0.00 | 0.00 | 0.00 | 98 | 1009.5 |
| 20260504023601 | 15 | 45 | 1.6 | 3.2 | 0.00 | 0.00 | 0.00 | 98 | 1009.5 |
| 20260504023302 | 15 | 57 | 0.0 | 3.2 | 0.00 | 0.00 | 0.00 | 98 | 1009.5 |
| 20260504023001 | 15 | 49 | 3.2 | 3.2 | 0.00 | 0.00 | 0.00 | 98 | 1009.5 |
| 20260504022702 | 15 | 33 | 1.6 | 3.2 | 0.00 | 0.00 | 0.00 | 98 | 1009.5 |
| 20260504022401 | 15 | 27 | 3.2 | 3.2 | 0.00 | 0.00 | 0.00 | 98 | 1009.5 |
| 20260504022101 | 15 | 24 | 1.6 | 3.2 | 0.00 | 0.00 | 0.00 | 98 | 1009.5 |
| 20260504021802 | 15 | 24 | 1.6 | 3.2 | 0.00 | 0.00 | 0.00 | 98 | 1009.5 |
| 20260504021501 | 15 | 23 | 3.2 | 3.2 | 0.00 | 0.00 | 0.00 | 98 | 1009.5 |
| 20260504021201 | 15 | 356 | 3.2 | 3.2 | 0.00 | 0.00 | 0.00 | 98 | 1009.5 |
| 20260504020900 | 15 | 348 | 0.0 | 4.8 | 0.00 | 0.00 | 0.00 | 98 | 1009.5 |
| 20260504020300 | 15 | 351 | 3.2 | 4.8 | 0.00 | 0.00 | 0.00 | 98 | 1009.5 |
| 20260504020001 | 15 | 356 | 3.2 | 3.2 | 0.00 | 0.00 | 0.00 | 98 | 1009.5 |
| 20260504015701 | 15 | 16 | 3.2 | 3.2 | 0.00 | 0.00 | 0.00 | 98 | 1009.5 |
| 20260504015400 | 15 | 30 | 1.6 | 3.2 | 0.00 | 0.00 | 0.00 | 98 | 1009.5 |
| 20260504015101 | 15 | 31 | 0.0 | 3.2 | 0.00 | 0.00 | 0.00 | 98 | 1009.5 |
| 20260504014801 | 15 | 18 | 3.2 | 3.2 | 0.00 | 0.00 | 0.00 | 98 | 1009.5 |
| 20260504014201 | 15 | 5 | 3.2 | 6.4 | 0.00 | 0.00 | 0.00 | 98 | 1009.5 |
| 20260504013902 | 15 | 6 | 1.6 | 6.4 | 0.00 | 0.00 | 0.00 | 98 | 1009.5 |
| 20260504013301 | 15 | 359 | 4.8 | 6.4 | 0.00 | 0.00 | 0.00 | 98 | 1009.5 |
| 20260504013002 | 15 | 1 | 4.8 | 6.4 | 0.00 | 0.00 | 0.00 | 98 | 1009.5 |
| 20260504012402 | 15 | 8 | 3.2 | 9.7 | 0.00 | 0.00 | 0.00 | 98 | 1009.5 |
| 20260504012101 | 15 | 8 | 4.8 | 9.7 | 0.00 | 0.00 | 0.00 | 98 | 1009.5 |
| 20260504011500 | 16 | 19 | 6.4 | 6.4 | 0.00 | 0.00 | 0.00 | 98 | 1009.5 |
| 20260504011201 | 16 | 25 | 3.2 | 4.8 | 0.00 | 0.00 | 0.00 | 98 | 1009.5 |
| 20260504010902 | 16 | 19 | 3.2 | 4.8 | 0.00 | 0.00 | 0.00 | 98 | 1010.5 |
| 20260504010601 | 16 | 9 | 1.6 | 4.8 | 0.00 | 0.00 | 0.00 | 98 | 1010.5 |
| 20260504010001 | 16 | 352 | 3.2 | 4.8 | 0.00 | 0.00 | 0.00 | 98 | 1010.5 |
| 20260504005401 | 16 | 348 | 3.2 | 4.8 | 0.00 | 0.00 | 0.00 | 98 | 1010.5 |
| 20260504004800 | 16 | 338 | 1.6 | 4.8 | 0.00 | 0.00 | 0.00 | 98 | 1010.5 |
| 20260504003900 | 16 | 347 | 3.2 | 6.4 | 0.00 | 0.00 | 0.00 | 98 | 1009.5 |
| 20260504003601 | 16 | 344 | 4.8 | 6.4 | 0.00 | 0.00 | 0.00 | 98 | 1009.5 |
| 20260504003301 | 16 | 346 | 3.2 | 6.4 | 0.00 | 0.00 | 0.00 | 98 | 1009.5 |
| 20260504003001 | 16 | 350 | 3.2 | 4.8 | 0.00 | 0.00 | 0.00 | 98 | 1009.5 |
| 20260504002701 | 15 | 356 | 3.2 | 4.8 | 0.00 | 0.00 | 0.00 | 98 | 1009.5 |
| 20260504002400 | 15 | 11 | 3.2 | 3.2 | 0.00 | 0.00 | 0.00 | 98 | 1009.5 |
| 20260504001800 | 15 | 24 | 3.2 | 3.2 | 0.00 | 0.00 | 0.00 | 98 | 1009.5 |
| 20260504001501 | 15 | 13 | 3.2 | 3.2 | 0.00 | 0.00 | 0.00 | 98 | 1009.5 |
| 20260504000901 | 15 | 1 | 3.2 | 3.2 | 0.00 | 0.00 | 0.00 | 98 | 1010.5 |
| 20260504000600 | 15 | 8 | 3.2 | 3.2 | 0.00 | 0.00 | 0.00 | 98 | 1010.5 |
| 20260504000301 | 15 | 22 | 0.0 | 3.2 | 0.00 | 0.00 | 0.00 | 98 | 1010.5 |
| 20260504000001 | 15 | 22 | 0.0 | 3.2 | 0.00 | 0.00 | 0.00 | 98 | 1010.5 |
| 20260503235701 | 15 | 1 | 0.0 | 3.2 | 0.00 | 0.00 | 0.00 | 98 | 1010.5 |
| 20260503235401 | 15 | 1 | 0.0 | 3.2 | 0.00 | 0.00 | 0.00 | 98 | 1010.5 |
| 20260503235101 | 15 | 1 | 0.0 | 3.2 | 0.00 | 0.00 | 0.00 | 98 | 1010.5 |
| 20260503234802 | 15 | 17 | 0.0 | 1.6 | 0.00 | 0.00 | 0.00 | 98 | 1010.5 |
| 20260503234501 | 15 | 358 | 0.0 | 3.2 | 0.00 | 0.00 | 0.00 | 98 | 1010.5 |
| 20260503233601 | 15 | 333 | 1.6 | 3.2 | 0.00 | 0.00 | 0.00 | 98 | 1010.5 |
| 20260503233301 | 15 | 345 | 3.2 | 3.2 | 0.00 | 0.00 | 0.00 | 98 | 1010.5 |
| 20260503233002 | 15 | 4 | 3.2 | 3.2 | 0.00 | 0.00 | 0.00 | 98 | 1010.5 |
| 20260503232401 | 15 | 23 | 3.2 | 3.2 | 0.00 | 0.00 | 0.00 | 98 | 1010.5 |
| 20260503232100 | 15 | 12 | 1.6 | 4.8 | 0.00 | 0.00 | 0.00 | 98 | 1010.5 |
| 20260503231801 | 15 | 1 | 1.6 | 4.8 | 0.00 | 0.00 | 0.00 | 98 | 1010.5 |
| 20260503231500 | 15 | 355 | 3.2 | 4.8 | 0.00 | 0.00 | 0.00 | 98 | 1010.5 |
| 20260503231201 | 15 | 358 | 1.6 | 4.8 | 0.00 | 0.00 | 0.00 | 98 | 1010.5 |
| 20260503230902 | 15 | 1 | 4.8 | 4.8 | 0.00 | 0.00 | 0.00 | 98 | 1009.5 |
| 20260503230602 | 15 | 12 | 3.2 | 4.8 | 0.00 | 0.00 | 0.00 | 98 | 1009.5 |
| 20260503230301 | 15 | 10 | 3.2 | 4.8 | 0.00 | 0.00 | 0.00 | 98 | 1009.5 |
| 20260503225401 | 15 | 16 | 3.2 | 4.8 | 0.00 | 0.00 | 0.00 | 98 | 1009.5 |
| 20260503225101 | 15 | 22 | 4.8 | 4.8 | 0.00 | 0.00 | 0.00 | 98 | 1009.5 |
| 20260503224801 | 15 | 22 | 3.2 | 4.8 | 0.00 | 0.00 | 0.00 | 98 | 1009.5 |
| 20260503224501 | 15 | 28 | 3.2 | 4.8 | 0.00 | 0.00 | 0.00 | 98 | 1010.5 |
| 20260503224200 | 15 | 28 | 1.6 | 4.8 | 0.00 | 0.00 | 0.00 | 98 | 1010.5 |
| 20260503223901 | 15 | 26 | 1.6 | 3.2 | 0.00 | 0.00 | 0.00 | 98 | 1010.5 |
| 20260503223600 | 15 | 19 | 1.6 | 3.2 | 0.00 | 0.00 | 0.00 | 98 | 1010.5 |
| 20260503223001 | 15 | 5 | 3.2 | 3.2 | 0.00 | 0.00 | 0.00 | 98 | 1010.5 |
| 20260503222700 | 15 | 2 | 3.2 | 3.2 | 0.00 | 0.00 | 0.00 | 98 | 1010.5 |
| 20260503222400 | 15 | 4 | 3.2 | 3.2 | 0.00 | 0.00 | 0.00 | 98 | 1010.5 |
| 20260503221801 | 15 | 22 | 1.6 | 1.6 | 0.00 | 0.00 | 0.00 | 98 | 1010.5 |
| 20260503221501 | 15 | 0 | 0.0 | 0.0 | 0.00 | 0.00 | 0.00 | 98 | 1010.5 |
| 20260503221201 | 15 | 45 | 0.0 | 1.6 | 0.00 | 0.00 | 0.00 | 98 | 1010.5 |
| 20260503220601 | 15 | 46 | 0.0 | 3.2 | 0.00 | 0.00 | 0.00 | 98 | 1010.5 |
| 20260503220301 | 15 | 22 | 0.0 | 6.4 | 0.00 | 0.00 | 0.00 | 98 | 1010.5 |
| 20260503220002 | 15 | 20 | 0.0 | 6.4 | 0.00 | 0.00 | 0.00 | 98 | 1010.5 |
| 20260503215701 | 15 | 24 | 3.2 | 6.4 | 0.00 | 0.00 | 0.00 | 98 | 1010.5 |
| 20260503215401 | 15 | 31 | 6.4 | 6.4 | 0.00 | 0.00 | 0.00 | 98 | 1010.5 |
| 20260503215101 | 15 | 33 | 3.2 | 3.2 | 0.00 | 0.00 | 0.00 | 98 | 1010.5 |
| 20260503214801 | 15 | 33 | 3.2 | 3.2 | 0.00 | 0.00 | 0.00 | 98 | 1010.5 |
| 20260503214500 | 15 | 2 | 1.6 | 4.8 | 0.00 | 0.00 | 0.00 | 98 | 1010.5 |
| 20260503214201 | 15 | 339 | 0.0 | 4.8 | 0.00 | 0.00 | 0.00 | 98 | 1010.5 |
| 20260503213901 | 15 | 336 | 1.6 | 4.8 | 0.00 | 0.00 | 0.00 | 98 | 1010.5 |
| 20260503213601 | 15 | 339 | 4.8 | 4.8 | 0.00 | 0.00 | 0.00 | 98 | 1010.5 |
| 20260503213300 | 15 | 349 | 3.2 | 6.4 | 0.00 | 0.00 | 0.00 | 98 | 1010.5 |
| 20260503212701 | 15 | 15 | 1.6 | 6.4 | 0.00 | 0.00 | 0.00 | 98 | 1010.5 |
| 20260503212401 | 15 | 17 | 1.6 | 6.4 | 0.00 | 0.00 | 0.00 | 98 | 1010.5 |
| 20260503211801 | 15 | 13 | 4.8 | 6.4 | 0.00 | 0.00 | 0.00 | 98 | 1010.5 |
| 20260503211501 | 15 | 12 | 1.6 | 6.4 | 0.00 | 0.00 | 0.00 | 98 | 1010.5 |
| 20260503210900 | 15 | 33 | 3.2 | 4.8 | 0.00 | 0.00 | 0.00 | 98 | 1010.5 |
| 20260503210301 | 15 | 32 | 1.6 | 4.8 | 0.00 | 0.00 | 0.00 | 98 | 1010.5 |
| 20260503210002 | 15 | 27 | 1.6 | 4.8 | 0.00 | 0.00 | 0.00 | 98 | 1010.5 |
| 20260503205701 | 15 | 29 | 4.8 | 6.4 | 0.00 | 0.00 | 0.00 | 98 | 1010.5 |
| 20260503205401 | 15 | 14 | 4.8 | 6.4 | 0.00 | 0.00 | 0.00 | 98 | 1010.5 |
| 20260503204801 | 16 | 1 | 3.2 | 6.4 | 0.00 | 0.00 | 0.00 | 98 | 1010.5 |
| 20260503204501 | 16 | 359 | 3.2 | 6.4 | 0.00 | 0.00 | 0.00 | 98 | 1010.5 |
| 20260503204201 | 16 | 356 | 3.2 | 4.8 | 0.00 | 0.00 | 0.00 | 98 | 1010.5 |
| 20260503203600 | 16 | 1 | 3.2 | 3.2 | 0.00 | 0.00 | 0.00 | 98 | 1010.5 |
| 20260503203301 | 16 | 19 | 3.2 | 3.2 | 0.00 | 0.00 | 0.00 | 98 | 1010.5 |
| 20260503203001 | 16 | 33 | 1.6 | 4.8 | 0.00 | 0.00 | 0.00 | 98 | 1010.5 |
| 20260503202700 | 16 | 44 | 1.6 | 4.8 | 0.00 | 0.00 | 0.00 | 98 | 1010.5 |
| 20260503202101 | 16 | 46 | 4.8 | 4.8 | 0.00 | 0.00 | 0.00 | 98 | 1010.5 |
| 20260503201801 | 16 | 43 | 3.2 | 4.8 | 0.00 | 0.00 | 0.00 | 98 | 1010.5 |
| 20260503200600 | 16 | 23 | 0.0 | 3.2 | 0.00 | 0.00 | 0.00 | 98 | 1010.5 |
| 20260503200300 | 16 | 16 | 1.6 | 3.2 | 0.00 | 0.00 | 0.00 | 98 | 1010.5 |
| 20260503200001 | 16 | 4 | 1.6 | 3.2 | 0.00 | 0.00 | 0.00 | 98 | 1010.5 |
| 20260503195701 | 16 | 354 | 1.6 | 4.8 | 0.00 | 0.00 | 0.00 | 98 | 1010.5 |
| 20260503195400 | 16 | 350 | 3.2 | 4.8 | 0.00 | 0.00 | 0.00 | 98 | 1010.5 |
| 20260503195101 | 16 | 359 | 1.6 | 4.8 | 0.00 | 0.00 | 0.00 | 98 | 1010.5 |
| 20260503194801 | 16 | 358 | 1.6 | 4.8 | 0.00 | 0.00 | 0.00 | 98 | 1010.5 |
| 20260503194500 | 16 | 7 | 4.8 | 4.8 | 0.00 | 0.00 | 0.00 | 98 | 1010.5 |
| 20260503194200 | 16 | 8 | 4.8 | 4.8 | 0.00 | 0.00 | 0.00 | 98 | 1010.5 |
| 20260503193901 | 16 | 18 | 4.8 | 4.8 | 0.00 | 0.00 | 0.00 | 98 | 1010.5 |
| 20260503193600 | 16 | 20 | 3.2 | 3.2 | 0.00 | 0.00 | 0.00 | 98 | 1010.5 |
| 20260503193301 | 16 | 18 | 1.6 | 3.2 | 0.00 | 0.00 | 0.00 | 98 | 1010.5 |
| 20260503193001 | 16 | 23 | 1.6 | 3.2 | 0.00 | 0.00 | 0.00 | 98 | 1010.5 |
| 20260503192700 | 16 | 26 | 3.2 | 3.2 | 0.00 | 0.00 | 0.00 | 98 | 1010.5 |
| 20260503192401 | 16 | 30 | 1.6 | 3.2 | 0.00 | 0.00 | 0.00 | 98 | 1010.5 |